DW2686 Robertsdale AL US current weather conditions

sailwx.info

Wind from 226

Air temperature 5.0° C
Dewpoint 4.0° C

Last reported at 2020-Jan-25 03:46 UTC.
Time now 2020-Jan-25 04:26 UTC

Location: N 30°32' W 087°44'.
View on Google Maps.

See reports from other nearby stations

  
Tides and Currents Weather Stations Pressure Air Temp Water Temp Dewpoint Dewpoint Depression Visibility Wind Speed Wind Dir Waves Ship Positions
date/time (UTC)wind fromknots sea level pressurealtimeterstation pressurevisibilityair tempwater tempwave heightnotes
2020-Jan-25 03:46 226 5.0
2020-Jan-25 03:30 226 5.6
2020-Jan-25 03:17 226 5.6
2020-Jan-25 03:01 226 6.1
2020-Jan-25 02:45 226 6.1
2020-Jan-25 02:31 226 6.7
2020-Jan-25 02:15 226 6.7
2020-Jan-25 02:00 226 7.2
2020-Jan-25 01:46 226 7.8
2020-Jan-25 01:30 226 7.8
2020-Jan-25 01:15 226 8.3
2020-Jan-25 01:00 226 8.9
2020-Jan-25 00:45 226 8.9
2020-Jan-25 00:30 226 9.4
2020-Jan-25 00:15 229 10.0
2020-Jan-25 00:02 229 10.6
2020-Jan-24 23:46 229 11.7
2020-Jan-24 23:31 229 12.8
2020-Jan-24 23:18 229 12.8
2020-Jan-24 23:02 211 13.3
2020-Jan-24 22:46 205 13.9
2020-Jan-24 22:31 212 14.4
2020-Jan-24 22:17 221 1 gusting 8 15.0
2020-Jan-24 22:02 213 1 gusting 7 16.1
2020-Jan-24 21:48 216 2 gusting 8 16.7
2020-Jan-24 21:33 251 0 gusting 5 17.8
2020-Jan-24 21:17 232 0 gusting 5 17.8
2020-Jan-24 21:03 309 0 gusting 6 17.8
2020-Jan-24 20:47 313 0 gusting 6 17.2
2020-Jan-24 20:31 248 0 gusting 6 17.8
2020-Jan-24 20:16 268 0 gusting 6 17.2
2020-Jan-24 20:03 005 2 gusting 7 17.2
2020-Jan-24 19:47 355 1 gusting 6 17.2
2020-Jan-24 19:31 351 1 gusting 6 17.2
2020-Jan-24 19:17 331 3 gusting 8 16.7
2020-Jan-24 19:02 306 2 gusting 9 16.1
2020-Jan-24 18:47 265 3 gusting 10 16.1
2020-Jan-24 18:31 315 2 gusting 8 16.1
2020-Jan-24 18:17 342 2 gusting 11 15.6
2020-Jan-24 18:00 319 15.0
2020-Jan-24 17:46 343 2 gusting 6 15.0
2020-Jan-24 17:30 279 4 gusting 7 14.4
2020-Jan-24 17:15 282 1 gusting 8 13.9
2020-Jan-24 17:01 298 13.3
2020-Jan-24 16:45 284 12.8
2020-Jan-24 16:30 301 12.2
2020-Jan-24 16:15 310 1 gusting 5 11.7
2020-Jan-24 16:00 360 11.1
2020-Jan-24 15:46 298 11.1
2020-Jan-24 15:32 340 11.1
2020-Jan-24 15:17 302 11.7
2020-Jan-24 15:02 322 11.7
2020-Jan-24 14:46 290 11.7
2020-Jan-24 14:32 318 12.2
2020-Jan-24 14:17 330 11.7
2020-Jan-24 14:02 302 11.7
2020-Jan-24 13:47 338 11.7
2020-Jan-24 13:31 320 11.7
2020-Jan-24 13:19 313 11.7
2020-Jan-24 13:01 009 11.7
2020-Jan-24 12:46 305 11.7
2020-Jan-24 12:30 324 11.7
2020-Jan-24 12:15 304 12.2
2020-Jan-24 12:01 340 12.2
2020-Jan-24 11:46 342 12.2
2020-Jan-24 11:30 316 12.8
2020-Jan-24 11:15 329 12.8
2020-Jan-24 11:00 306 12.8
2020-Jan-24 10:45 283 12.8
2020-Jan-24 10:30 075 12.2
2020-Jan-24 10:16 065 11.7
2020-Jan-24 10:01 071 11.1
2020-Jan-24 09:45 071 11.1
2020-Jan-24 09:30 071 10.6
2020-Jan-24 09:15 071 10.6
2020-Jan-24 09:00 071 10.6
2020-Jan-24 08:46 071 10.6
2020-Jan-24 08:30 071 10.6
2020-Jan-24 08:15 071 10.6
2020-Jan-24 08:01 071 10.6
2020-Jan-24 07:45 071 11.1
2020-Jan-24 07:30 071 11.7
2020-Jan-24 07:18 071 11.7
2020-Jan-24 07:02 071 12.2
2020-Jan-24 06:47 038 12.2
2020-Jan-24 06:33 038 12.2
2020-Jan-24 06:17 038 12.2
2020-Jan-24 06:02 038 12.2
2020-Jan-24 05:46 038 12.8
2020-Jan-24 05:33 038 12.8
2020-Jan-24 05:19 038 12.8
2020-Jan-24 05:01 038 12.8
2020-Jan-24 04:47 038 12.8
2020-Jan-24 04:32 047 12.8
2020-Jan-24 04:17 048 12.8
2020-Jan-24 04:01 049 12.8
2020-Jan-24 03:48 355 12.8
2020-Jan-24 03:31 355 12.8
2020-Jan-24 03:18 267 12.8
2020-Jan-24 03:02 170 12.8
2020-Jan-24 02:46 170 12.8
2020-Jan-24 02:31 077 12.8
2020-Jan-24 02:16 117 12.8
2020-Jan-24 02:02 090 12.8
2020-Jan-24 01:46 132 12.2
2020-Jan-24 01:31 130 12.2
2020-Jan-24 01:17 175 12.2
2020-Jan-24 01:01 095 12.2
2020-Jan-24 00:46 096 11.7
2020-Jan-24 00:31 051 11.7
2020-Jan-24 00:17 160 11.7
2020-Jan-24 00:01 136 11.7
2020-Jan-23 23:46 102 11.1
2020-Jan-23 23:32 153 11.1
2020-Jan-23 23:16 121 11.1
2020-Jan-23 23:02 054 11.1
2020-Jan-23 22:45 119 11.1
2020-Jan-23 22:31 058 11.1
2020-Jan-23 22:16 057 11.1
2020-Jan-23 22:01 121 0 gusting 6 11.1
2020-Jan-23 21:46 034 0 gusting 6 11.1
2020-Jan-23 21:31 126 0 gusting 9 11.1
2020-Jan-23 21:15 074 11.1
2020-Jan-23 21:01 071 11.1
2020-Jan-23 20:46 128 11.1
2020-Jan-23 20:30 154 11.1
2020-Jan-23 20:15 061 11.1
2020-Jan-23 20:00 321 11.1
2020-Jan-23 19:45 042 11.7
2020-Jan-23 19:30 053 11.7
2020-Jan-23 19:15 102 11.7
2020-Jan-23 19:00 096 12.2
2020-Jan-23 18:45 039 12.2
2020-Jan-23 18:30 068 12.2
2020-Jan-23 18:17 138 12.2
2020-Jan-23 18:02 063 12.2
2020-Jan-23 17:46 134 1 gusting 7 12.8
2020-Jan-23 17:32 040 2 gusting 8 12.8
2020-Jan-23 17:18 110 1 gusting 8 12.8
2020-Jan-23 17:01 115 2 gusting 9 12.8
2020-Jan-23 16:47 033 3 gusting 7 12.8
2020-Jan-23 16:31 151 2 gusting 12 12.2
2020-Jan-23 16:17 095 4 gusting 8 11.7
2020-Jan-23 16:01 138 2 gusting 6 11.7
2020-Jan-23 15:45 134 2 gusting 6 11.1
2020-Jan-23 15:31 005 2 gusting 9 10.6
2020-Jan-23 15:15 065 2 gusting 6 10.6
2020-Jan-23 15:00 110 1 gusting 8 10.0
2020-Jan-23 14:45 074 9.4
2020-Jan-23 14:30 056 0 gusting 4 9.4
2020-Jan-23 14:15 143 9.4
2020-Jan-23 14:00 092 8.9
2020-Jan-23 13:45 054 1 gusting 5 8.9
2020-Jan-23 13:30 044 1 gusting 4 8.9
2020-Jan-23 13:15 049 8.9
2020-Jan-23 13:00 029 3 gusting 7 8.9
2020-Jan-23 12:45 046 1 gusting 6 8.9
2020-Jan-23 12:32 051 0 gusting 6 8.3
2020-Jan-23 12:17 067 8.3
2020-Jan-23 12:03 015 8.3
2020-Jan-23 11:47 021 8.3
2020-Jan-23 11:32 335 0 gusting 3 8.3
2020-Jan-23 11:17 034 8.3
2020-Jan-23 11:03 028 8.3
2020-Jan-23 10:47 059 8.3
2020-Jan-23 10:31 074 0 gusting 5 8.3
2020-Jan-23 10:16 040 8.3
2020-Jan-23 10:03 042 8.3
2020-Jan-23 09:46 011 8.3
2020-Jan-23 09:32 050 7.8
2020-Jan-23 09:16 030 7.8
2020-Jan-23 09:02 052 0 gusting 4 7.8
2020-Jan-23 08:46 019 7.2
2020-Jan-23 08:32 035 7.2
2020-Jan-23 08:16 045 6.7
2020-Jan-23 08:01 046 6.7
2020-Jan-23 07:45 046 6.7
2020-Jan-23 07:30 015 6.1
2020-Jan-23 07:16 351 6.1
2020-Jan-23 07:00 351 5.6
2020-Jan-23 06:45 351 5.6
2020-Jan-23 06:30 351 5.6
2020-Jan-23 06:15 351 5.6
2020-Jan-23 06:00 351 5.6
2020-Jan-23 05:45 351 5.6
2020-Jan-23 05:30 351 5.0
2020-Jan-23 05:15 259 5.0
2020-Jan-23 05:00 259 5.0
2020-Jan-23 04:45 259 5.6
2020-Jan-23 04:30 259 5.0
2020-Jan-23 04:15 259 5.0
2020-Jan-23 04:00 259 5.0